Regional Weather Roundup
Issued by NWS

Home | Current Version | Previous Version | Graphics & Text | Print | Product List | Glossary On
Versions: 1 2 3 4 5 6 7 8 9 10 11 12 13 14 15 16 17 18 19 20 21 22 23 24 25 26 27 28 29 30 31 32 33 34 35 36 37 38 39 40 41 42 43 44 45 46 47 48 49 50
000
ASUS43 KLOT 051508
RWRIL

ILLINOIS REGIONAL WEATHER ROUNDUP
NATIONAL WEATHER SERVICE CHICAGO/ROMEOVILLE IL
1000 AM CDT THU MAY 05 2016

NOTE: "FAIR" INDICATES FEW OR NO CLOUDS BELOW 12,000 FEET WITH NO
SIGNIFICANT WEATHER AND/OR OBSTRUCTIONS TO VISIBILITY.

* THESE STATIONS ARE NOT UNDER NWS QUALITY CONTROL. THEY ALSO MAY NOT
  REPORT WEATHER SUCH AS PRECIPITATION OR FOG.

ILZ001-002-007-009-015-016-024-051600-
NORTHWEST ILLINOIS

CITY           SKY/WX    TMP DP  RH WIND       PRES   REMARKS
MOLINE         SUNNY     53  36  52 NE9       30.06
STERLING*      SUNNY     52  39  62 N12       30.06R
SAVANNA*       SUNNY     52  37  57 NW6       30.07R
$$

ILZ003-004-008-010-011-017-018-051600-
NORTH CENTRAL ILLINOIS

CITY           SKY/WX    TMP DP  RH WIND       PRES   REMARKS
ROCKFORD       SUNNY     53  38  56 N13       30.06R
FREEPORT*      SUNNY     50  39  67 N8        30.07R
ROCHELLE*      SUNNY     50  40  68 N15       30.04S
DE KALB*       SUNNY     50  41  72 N15       30.03R
$$

ILZ005-006-012>014-019>023-051600-
NORTHEAST ILLINOIS

CITY           SKY/WX    TMP DP  RH WIND       PRES   REMARKS
CHICAGO-OHARE  MOSUNNY   52  39  61 N13       30.00R
CHICAGO-MIDWAY MOSUNNY   52  39  61 NE15      30.00R
AURORA         SUNNY     53  41  63 N12       30.01R
LANSING*       PTSUNNY   47  39  75 N13G21    30.00R
JOLIET*        SUNNY     53  41  62 N10       30.00R
WAUKEGAN       SUNNY     50  39  66 N13G20    30.01R
DUPAGE AIRPORT SUNNY     52  39  61 N12       30.00R
KANKAKEE*      SUNNY     51  40  66 N10       29.99R
WHEELING       MOSUNNY   52  40  63 N12       30.02R
MORRIS*        SUNNY     52  41  65 N7        30.00R
ROMEOVILLE*    SUNNY     52  40  63 NE15      30.00R
NORTHERLY ISL    N/A     45  37  73 N17         N/A
NORTHERLY ISL    N/A     45  37  73 N17         N/A
$$

LMZ740>746-051600-
SOUTHERN LAKE MICHIGAN

STATION/POSITION SKY/WX   TEMP    WIND        PRES    VSBY  WAVE
                          AIR SEA DIR/SP/G                  HT/PER
                          (F)     (DEG/KT/KT) (MB)    (MI)  (FT/S)
SOUTHERN BUOY              40 40   10/ 17/ 19 1015.6R         5/ 7
WILMETTE HARBOR            42 43   20/ 16/ 21   N/A           6/ 7
HARRISON CRIB              42     350/ 22/ 23   N/A
BURNHAM HARBOR             45     360/ 16/ 19   N/A
CALUMET HARBOR             43     340/ 17/ 23 1015.2R
BURNS HARBOR               42     360/ 17/ 20 1015.9R
MICHIGAN CITY              42     350/ 17/ 20   N/A
ST. JOSEPH                 43 46                N/A           5/ 6
$$

ILZ025>027-034>036-040-047-049-050-058-095>099-051600-
WEST-CENTRAL ILLINOIS

CITY           SKY/WX    TMP DP  RH WIND       PRES   REMARKS
QUINCY         SUNNY     54  41  61 N10       30.06R
GALESBURG*     SUNNY     51  38  61 N14       30.06R
MACOMB*        SUNNY     53  39  60 N16       30.08R
JACKSONVILLE*  SUNNY     53  37  55 N14       30.04R
PITTSFIELD*    SUNNY     53  40  62 N10G18    30.06R
$$

ILZ028>032-037-038-041>044-048-051>054-059>061-051600-
CENTRAL ILLINOIS

CITY           SKY/WX    TMP DP  RH WIND       PRES   REMARKS
PONTIAC        SUNNY     52  43  71 N12       30.01R
BLOOMINGTON    MOSUNNY   51  43  74 N14       30.01R
DECATUR        MOSUNNY   51  41  68 N14       30.00R
PEORIA         SUNNY     52  39  61 N8        30.04R
LACON*         SUNNY     50  39  67 N8        30.03R
LINCOLN*       SUNNY     51  43  72 N10       30.02R
SPRINGFIELD    MOSUNNY   53  42  66 N16G22    30.03R
TAYLORVILLE    CLOUDY    49  41  74 N14G20    30.01R
$$

ILZ033-039-045-046-055>057-062-063-051600-
EAST-CENTRAL ILLINOIS

CITY           SKY/WX    TMP DP  RH WIND       PRES   REMARKS
CHAMPAIGN      PTSUNNY   52  42  69 N15       29.97R
RANTOUL*       SUNNY     53  44  70 N14G21    29.97R
MATTOON        PTSUNNY   50  41  71 N17       29.96R
PARIS*         CLOUDY    47  43  84 N7        29.96R
$$

ILZ079-100>102-051600-
SOUTHWEST ILLINOIS

CITY           SKY/WX    TMP DP  RH WIND       PRES   REMARKS
ALTON          MOSUNNY   52  37  58 N15       30.02R
BELLEVILLE     SUNNY     55  40  56 NE10G18   30.00R
CAHOKIA*       SUNNY     57  39  51 N15G24    30.02R
SPARTA*        SUNNY     53  40  61 NW10G18   30.01R
$$

ILZ064>066-069>071-074>076-080>082-084>086-088>090-092>094-051600-
SOUTH-CENTRAL ILLINOIS

CITY           SKY/WX    TMP DP  RH WIND       PRES   REMARKS
CARBONDALE     SUNNY     55  40  56 N14G25    29.97R
CAIRO*         SUNNY     58  41  53 NW16G22   29.95R
EFFINGHAM*     PTSUNNY   48  42  80 N8        29.99S
MARION         MOSUNNY   54  41  62 N14G20    29.97R
MT. VERNON     PTSUNNY   48  37  66 N9G16     29.99R
CENTRALIA*     CLOUDY    50  43  75 N14       29.98S
SALEM*         PTSUNNY   52  42  70 N9G18     29.99R
METROPOLIS*    MOSUNNY   57  43  59 N16G22    29.94R
$$

ILZ067-068-072-073-078-083-087-091-051600-
SOUTHEAST ILLINOIS

CITY           SKY/WX    TMP DP  RH WIND       PRES   REMARKS
LAWRENCEVILLE  CLOUDY    50  41  71 N13G22    29.94R
FLORA*         CLOUDY    51  41  69 NE14      29.97R
FAIRFIELD*     CLOUDY    48  40  74 N10G17    29.95R
HARRISBURG*    CLOUDY    49  41  74 N12G20    29.97R
ROBINSON*      MOSUNNY   50  42  73 N13G22    29.94R
CARMI*         CLOUDY    48  40  75 N14       29.95R
$$

ABBREVIATIONS USED IN REMARKS
   TC - TEMPERATURE IN CELSIUS
  WCI - WIND CHILL INDEX
   HX - HEAT INDEX
  VSB - VISIBILITY
$$





USA.gov is the U.S. government's official web portal to all federal, state and local government web resources and services.